Weather History for Worland, WY

Change the Weather History Date:

Thursday, January 10, 2013

  Actual Average Record
Temperature  
Mean Temperature 35 °F 16 °F  
Max Temperature 44 °F 30 °F 61 °F (1995)
Min Temperature 25 °F 3 °F -38 °F (1962)
Degree Days  
Heating Degree Days 30 49  
Month to date heating degree days 512 490  
Since 1 July heating degree days 3254 3853  
Cooling Degree Days 0 0  
Month to date cooling degree days 0 0  
Year to date cooling degree days 0 0  
Moisture  
Dew Point 23 °F    
Average Humidity 66    
Maximum Humidity 85    
Minimum Humidity 46    
Precipitation  
Precipitation 0.00 in 0.01 in 0.32 in (1997)
Month to date precipitation T 0.08  
Year to date precipitation T 0.08  
Sea Level Pressure  
Sea Level Pressure 29.55 in    
Wind  
Wind Speed 13 mph (SSE)    
Max Wind Speed 22 mph    
Max Gust Speed 26 mph    
Visibility 10 miles    
Events      
T = Trace of Precipitation, MM = Missing Value Source: NWS Daily Summary

Daily Weather History Graph

Daily Weather History Graph

Search for Another Location

Airport:

Trip Planner

Search our weather history database for the weather conditions in past years. The results will help you decide how hot, cold, wet, or windy it might be!

Date:

Astronomy

Jan. 10, 2013 Rise Set
Actual Time 7:45 AM MST 4:54 PM MST
Civil Twilight 7:12 AM MST 5:26 PM MST
Nautical Twilight 6:36 AM MST 6:02 PM MST
Astronomical Twilight 6:02 AM MST 6:37 PM MST
Moon 6:27 AM MST (1/10) 4:05 PM MST (1/10)
Length of Visible Light 10h 13m
Length of Day
9h 09m
Waning Crescent, 2% of the Moon is Illuminated
Jan 10
Waning Crescent
Jan 11
New
Jan 18
First Quarter
Jan 26
Full
Feb 3
Last Quarter

Hourly Weather History & Observations

Time (MST) Temp. Windchill Dew Point Humidity Pressure Visibility Wind Dir Wind Speed Gust Speed Precip Events Conditions
12:53 AM 33.1 °F 24.4 °F 21.9 °F 64% 29.83 in 10.0 mi SSE 11.5 mph - N/A   Clear
1:53 AM 33.1 °F 23.9 °F 21.0 °F 61% 29.77 in 10.0 mi SSE 12.7 mph - N/A   Clear
2:53 AM 32.0 °F 23.6 °F 21.0 °F 64% 29.75 in 10.0 mi SE 10.4 mph - N/A   Clear
3:53 AM 30.9 °F 22.2 °F 19.0 °F 61% 29.71 in 10.0 mi SE 10.4 mph - N/A   Clear
4:53 AM 33.1 °F 23.9 °F 21.0 °F 61% 29.66 in 10.0 mi SSE 12.7 mph - N/A   Clear
5:53 AM 35.1 °F 27.4 °F 21.0 °F 57% 29.64 in 10.0 mi SSE 10.4 mph - N/A   Clear
6:53 AM 37.9 °F 28.2 °F 21.9 °F 53% 29.60 in 10.0 mi SSE 18.4 mph - N/A   Clear
7:53 AM 37.0 °F 29.8 °F 23.0 °F 57% 29.61 in 10.0 mi SSE 10.4 mph - N/A   Clear
8:53 AM 35.1 °F 26.4 °F 23.0 °F 61% 29.61 in 10.0 mi SSE 12.7 mph - N/A   Clear
9:53 AM 37.0 °F 30.4 °F 23.0 °F 57% 29.59 in 10.0 mi East 9.2 mph - N/A   Clear
10:53 AM 41.0 °F 31.9 °F 23.0 °F 49% 29.55 in 10.0 mi South 19.6 mph - N/A   Clear
11:53 AM 43.0 °F 35.7 °F 24.1 °F 47% 29.52 in 10.0 mi SSE 15.0 mph - N/A   Clear
12:53 PM 44.1 °F 39.0 °F 27.0 °F 51% 29.49 in 10.0 mi South 9.2 mph - N/A   Clear
1:53 PM 44.1 °F 36.5 °F 26.1 °F 49% 29.46 in 10.0 mi SSE 17.3 mph - N/A   Clear
2:53 PM 44.1 °F 36.2 °F 27.0 °F 51% 29.46 in 10.0 mi SSE 18.4 mph - N/A   Clear
3:53 PM 43.0 °F 35.4 °F 27.0 °F 53% 29.45 in 10.0 mi SSE 16.1 mph - N/A   Clear
4:53 PM 41.0 °F 32.5 °F 26.1 °F 55% 29.44 in 10.0 mi SSE 17.3 mph - N/A   Clear
5:53 PM 36.0 °F 28.5 °F 26.1 °F 67% 29.45 in 10.0 mi SSE 10.4 mph - N/A   Clear
6:53 PM 36.0 °F 28.5 °F 25.0 °F 64% 29.43 in 10.0 mi SSE 10.4 mph - N/A   Clear
7:53 PM 33.1 °F 27.7 °F 25.0 °F 72% 29.45 in 10.0 mi WSW 5.8 mph - N/A   Clear
8:53 PM 30.9 °F 25.2 °F 24.1 °F 76% 29.49 in 10.0 mi North 5.8 mph - N/A   Clear
9:53 PM 28.0 °F 18.1 °F 24.1 °F 85% 29.51 in 10.0 mi North 11.5 mph - N/A   Clear
10:30 PM 26.6 °F 15.7 °F 21.2 °F 80% 29.45 in 10.0 mi NNW 12.7 mph - N/A   Mostly Cloudy
10:53 PM 26.1 °F 14.0 °F 21.9 °F 84% 29.51 in 10.0 mi NNW 15.0 mph - N/A   Overcast
11:30 PM 24.8 °F 15.3 °F 19.4 °F 80% 29.46 in 10.0 mi NNW 9.2 mph - N/A   Mostly Cloudy
11:37 PM 24.8 °F 17.9 °F 21.2 °F 86% 29.46 in 10.0 mi NNW 5.8 mph - N/A   Mostly Cloudy
11:53 PM 25.0 °F 15.5 °F 19.9 °F 81% 29.52 in 10.0 mi NNW 9.2 mph - N/A   Overcast